Weather in Chirpy

Russia / Republic of Tatarstan     55°26′40″N   49°42′53″E
temp.,
°C
wind,
m/s
gust,
m/s
humid.,
%
clouds,
%
prec.,
mm/h
press.,
hPa
HPBL,
m
16 april, fri
fri1600:00+11nne45720 0.0 101962
03:00+9ne6119558 0.0 1021285
06:00+9ene7119099 0.0 1022491
09:00+9ene7107653 0.0 1023585
12:00+12ene786573 0.0 1024809
15:00+12ene686185 0.0 1024877
18:00+11ene5106184 0.0 1024489
21:00+8ne6126065 0.0 1025325
17 april, sat
sat1700:00+6ne612645 0.0 1026283
03:00+4ne511695 0.0 1027248
06:00+4ne5116711 0.0 1027293
09:00+8ene69502 0.0 1027598
12:00+11ene67340 0.0 10271064
15:00+12ene56330 0.0 10261295
18:00+10ne35490 0.0 1026101
21:00+6ne48630 0.0 1026146
18 april, sun
sun1800:00+4ne48690 0.0 1025137
03:00+3ne34750 0.0 102661
06:00+4ne48745 0.0 1025177
09:00+9ene565097 0.0 1025733
12:00+12ene5642100 0.0 10241475
15:00+12ne5643100 0.0 10241747
18:00+8ene71166100 0.0 1026692
21:00+5ene81349100 0.0 1027694
19 april, mon
mon1900:00+3ene7135193 0.0 1029550
03:00+1ene71360100 0.0 1030565
06:000ene81461100 0.0 1031604
09:00+3e91246100 0.0 10321101
12:00+5e9113599 0.0 10321499
15:00+7e810311 0.0 10311681
18:00+5ene711370 0.0 1032795
21:00+2ene714430 0.0 1033461
20 april, tue
tue2000:000ene614490 0.0 1033395
03:000e612530 0.0 1034324
06:000e611550 0.0 1036344
09:00+4ese811360 0.0 10351055
12:00+7ese8102958 0.0 10341287
15:00+9ese7102877 0.0 10331449
18:00+7ese61240100 0.0 1032378
21:00+4ese5125197 0.0 1032273